Regional Weather Roundup
Issued by NWS

Home | Current Version | Previous Version | Text Only | Print | Product List | Glossary Off
Versions: 1 2 3 4 5 6 7 8 9 10 11 12 13 14 15 16 17 18 19 20 21 22 23 24 25 26 27 28 29 30 31 32 33 34 35 36 37 38 39 40 41 42 43 44 45 46 47 48 49 50

737
ASUS45 KBOU 140307
RWRCO

WEATHER ROUNDUP FOR COLORADO
NATIONAL WEATHER SERVICE DENVER/BOULDER CO
800 PM MST SAT FEB 13 2016

NOTE: "FAIR" INDICATES FEW OR NO CLOUDS BELOW 12000 FEET WITH NO
SIGNIFICANT WEATHER AND/OR OBSTRUCTIONS TO VISIBILITY.

COZ001>005-013-030-031-140400-
...NORTHWEST COLORADO...

CITY           SKY/WX    TMP DP  RH WIND       PRES   REMARKS
CRAIG          FAIR      16  11  80 N6        30.22R WCI   7
HAYDEN         FAIR      28  18  64 CALM      30.21R
MEEKER         FAIR      28  20  71 CALM      30.19R
MOUNT WERNER   NOT AVBL
STEAMBOAT SPGS FAIR      26  16  63 CALM      30.19R
WALDEN         FAIR      30  14  51 W16G26    30.17R WCI  19
$$

COZ006>008-011-140400-
...WEST CENTRAL VALLEYS...

CITY           SKY/WX    TMP DP  RH WIND       PRES   REMARKS
GRAND JUNCTION FAIR      31  28  89 CALM      30.20R
MONTROSE       FAIR      36  29  75 NE5       30.22R
EAGLE          CLEAR     37  21  52 CALM      30.19R
RIFLE          FAIR      33  24  69 CALM      30.20R
DELTA          FAIR      39  32  76 NW5       30.20R
NUCLA          FAIR      39  28  65 E5        30.23R
$$

COZ017>023-064>068-140400-
...SOUTHWEST COLORADO...

CITY           SKY/WX    TMP DP  RH WIND       PRES   REMARKS
DURANGO        FAIR      42  20  41 W6        30.18R
CORTEZ         FAIR      37  28  70 NE5       30.21R
PAGOSA SPRINGS FAIR      37  20  50 CALM      30.20S
TELLURIDE      NOT AVBL
WOLF CREEK PAS FAIR      28   3  34 SW3       30.36S
$$

COZ009-010-012-014-032>034-037-058>063-140400-
...CENTRAL COLORADO...

CITY           SKY/WX    TMP DP  RH WIND       PRES   REMARKS
ASPEN          FAIR      30  20  66 SW6       30.20R WCI  24
BUENA VISTA    FAIR      42  10  28 NW7       30.16R
COPPER MTN     FAIR      27   9  46 W29G39    30.21F WCI  11
BERTHOUD PASS  FAIR      19   9  63 NW23G39   30.23R WCI   2
COTTONWOOD PAS FAIR      37   5  25 N7G31     30.20R
GUNNISON       FAIR      14  10  85 S3        30.24F
KREMMLING      FAIR      27  16  63 E12       30.15R WCI  16
LEADVILLE      FAIR      28   8  43 N10       30.21R WCI  19
MONARCH PASS   FAIR      27   5  39 MISG      30.38F
SALIDA         NOT AVBL
SUNLIGHT       FAIR      28  14  54 CALM      30.29R
WILKERSON PASS FAIR      28   7  40 W15G30    30.19F WCI  17
$$

COZ069>075-140400-
...SAN LUIS VALLEY/SANGRE DE CRISTO MOUNTAINS...

CITY           SKY/WX    TMP DP  RH WIND       PRES   REMARKS
ALAMOSA        FAIR      38  16  40 N7        30.16S
LA VETA PASS   FAIR      36   1  23 W10G26    30.22R
SAGUACHE       FAIR      37  14  38 NW18      30.16F
$$

COZ035-036-038>040-140400-
...NORTHERN COLORADO FRONT RANGE...

CITY           SKY/WX    TMP DP  RH WIND       PRES   REMARKS
DENVER INTL AP FAIR      45  19  35 N10       29.97R
DMNS CITY PARK   N/A     54   7  14 E6G17     29.96R
AURORA         PTCLDY    45  14  29 S9        29.98R
FRONT RANGE AP MOCLDY    39  21  48 NW7       29.98R
ERIE MUNI ARPT FAIR      55  14  20 NW14G29   29.96R
BOULDER MUN AP FAIR      55  14  19 W37G53    29.88S
CENTENNIAL     FAIR      46  15  28 SE8       29.96R
BROOMFIELD     NOT AVBL
FORT COLLINS   FAIR      48  18  29 NW20G25   29.98R
LONGMONT       FAIR      55  17  21 NW22G33   29.97R
$$

COZ041-046-047-076>085-087-088-140400-
...PIKES PEAK/PALMER DIVIDE AND SOUTHERN FOOTHILLS...

CITY           SKY/WX    TMP DP  RH WIND       PRES   REMARKS
COLO. SPRINGS  MOCLDY    55   5  13 W26G41    29.98F
A. F. ACADEMY  FAIR      50  10  20 N18G36    29.98F
SCHRIEVER AFB  FAIR      49  11  21 W20G26    29.99F
ELLICOTT       FAIR     N/A N/A N/A W13       29.97F
FALCON         FAIR      45  13  28 W12       30.02F
FORT CARSON    FAIR      52  15  23 SW20G26   29.95F
LIMON          FAIR      31  27  85 N10       29.97S WCI  22
MONUMENT HILL  FAIR      36  18  48 W7        30.04R
TRINIDAD       FAIR      56  12  17 W15       30.01S
$$

COZ042>045-048>051-090-091-140400-
...NORTHEAST COLORADO...

CITY           SKY/WX    TMP DP  RH WIND       PRES   REMARKS
GREELEY ARPT   FAIR      41  25  52 NW20      29.96R
AKRON          FAIR      39  32  76 NW12G30   29.95R
BURLINGTON     FAIR      31  28  89 S16       29.93F WCI  20
WRAY           FAIR      33  32  94 E3        29.94R
STERLING       FAIR      36  32  87 N3        29.94R
HOLYOKE        FAIR      34  32  93 SW6       29.94R WCI  29
FORT MORGAN    FAIR      37  29  72 NW8       29.96R
$$

COZ086-089-092>099-140400-
...SOUTHEAST COLORADO...

CITY           SKY/WX    TMP DP  RH WIND       PRES   REMARKS
PUEBLO         FAIR      48  28  46 CALM      29.96F
LA JUNTA       FAIR      34  27  75 NE6       29.97S WCI  29
LAMAR          FAIR      29  25  85 N3        29.96R
SPRINGFIELD      N/A     39  31  72 N14       29.94R
$$




USA.gov is the U.S. government's official web portal to all federal, state and local government web resources and services.